Probability
0 0 0 0 0 0 0 0 0 0 0 0 0 0 0 3 6 10 10 10 10 6 13 19 16 19 26 23 26 26 23 19 26 19 23 13 13 16 16 16 23 26 26 19
0 0 0 0 0 0 0 0 0 0 0 0 0 0 0 0 6 10 10 10 13 13 13 10 13 13 16 19 26 23 26 26 23 19 16 13 13 13 16 23 26 26 26 23
0 0 0 0 0 0 0 0 0 0 0 0 0 0 0 6 10 10 10 13 13 13 10 10 10 13 19 19 23 23 23 19 23 19 19 23 19 10 13 23 29 29 26 26
0 0 0 0 0 0 0 3 0 0 0 0 0 0 0 6 10 13 13 13 16 6 10 10 13 10 16 16 23 19 23 23 23 26 23 23 23 23 19 16 23 26 26 23
0 0 0 0 0 6 3 0 3 0 0 0 0 3 6 10 13 13 13 13 13 13 13 13 16 16 16 13 16 19 19 19 23 26 23 23 26 26 26 16 19 19 16 19
0 0 0 0 0 0 0 0 3 0 0 0 6 3 3 10 16 13 16 16 16 13 10 13 13 13 13 13 16 19 16 19 19 23 23 23 23 23 23 19 19 19 19 19
0 0 0 0 0 0 0 0 0 0 0 6 3 0 3 16 19 16 13 13 13 13 10 13 13 13 10 13 16 16 13 16 16 23 23 23 23 19 19 19 19 16 23 23
0 0 0 0 3 6 3 0 3 3 6 6 3 6 16 23 23 19 19 13 13 13 10 10 13 13 13 13 19 16 13 13 19 19 19 19 16 23 19 16 19 19 19 16
0 0 0 0 3 6 6 6 3 6 6 6 10 19 19 23 23 16 13 10 13 13 3 3 6 13 13 16 13 16 13 13 23 26 19 19 19 19 19 19 19 19 19 19
0 0 0 3 3 6 6 6 3 3 6 13 16 19 26 26 19 16 13 6 6 6 6 6 10 13 13 16 13 16 13 13 13 19 16 16 16 19 19 19 16 19 19 19
3 0 0 3 3 3 3 6 6 3 13 13 16 16 26 26 23 26 13 6 10 13 13 13 10 13 16 16 13 16 16 13 13 13 13 13 16 16 19 19 19 16 16 16
3 0 3 3 3 3 6 10 13 10 16 19 23 23 29 23 23 13 6 6 6 6 10 13 10 13 13 10 13 13 13 13 13 10 10 13 10 6 3 6 6 0 6 10
0 0 3 3 0 6 6 3 3 6 10 13 16 16 19 19 16 13 10 10 6 6 6 13 10 10 13 10 10 16 13 13 13 10 13 10 6 6 6 6 3 0 0 0
0 3 3 3 3 6 6 6 6 6 6 3 6 6 13 10 13 6 10 6 3 3 3 3 6 6 6 6 6 6 6 6 6 3 3 6 6 6 6 10 10 6 3 0
0 0 3 0 0 0 3 6 3 3 3 3 10 13 13 10 10 13 10 10 3 3 3 3 6 6 6 6 6 6 6 6 3 3 0 0 3 6 6 10 10 13 10 6
0 3 3 0 0 0 0 0 0 0 0 0 6 10 13 6 13 6 6 6 10 6 6 3 6 6 6 6 6 6 3 0 0 0 0 0 3 3 3 3 3 10 10 13
0 3 0 0 0 0 0 0 0 0 0 0 0 3 6 6 6 3 3 3 3 0 0 3 6 10 10 10 10 6 0 3 0 0 0 0 0 3 3 3 3 3 3 3
0 0 0 0 0 0 0 0 0 3 0 0 0 0 6 6 6 6 6 6 6 3 3 3 6 10 6 13 13 6 6 3 3 0 0 3 3 3 3 3 3 3 3 0
3 0 0 0 0 3 0 0 0 0 0 0 0 0 0 0 3 6 6 6 6 6 6 3 3 10 10 6 3 6 6 10 6 6 3 3 3 3 3 3 3 3 3 0
3 0 0 0 0 0 0 0 0 0 0 0 0 0 0 0 0 0 3 3 3 3 0 0 0 3 3 3 3 3 6 10 10 10 6 6 3 3 3 3 3 3 3 0
3 0 0 0 0 0 0 0 0 0 0 0 0 0 0 0 0 0 0 0 0 0 0 0 3 3 3 0 0 0 3 6 10 10 10 10 10 3 3 6 6 6 3 0
0 0 0 0 0 0 0 0 0 0 0 0 0 0 0 0 0 0 0 0 0 0 0 0 3 3 3 0 0 0 3 0 6 6 10 10 6 3 6 6 6 6 6 3
0 0 0 0 0 0 0 0 0 0 0 0 0 0 0 0 0 0 0 0 0 0 0 3 3 0 0 0 0 3 3 3 3 6 6 3 10 6 6 6 6 13 13 13
0 0 0 0 0 0 0 0 0 0 0 0 0 0 0 0 0 0 0 0 0 0 0 0 0 0 0 0 0 0 0 0 0 3 3 3 3 3 3 10 10 10 10 10
0 0 0 0 0 0 0 0 0 0 0 0 0 0 0 0 0 0 0 0 0 0 0 0 0 0 0 0 0 0 0 0 0 0 0 0 0 0 0 0 0 6 6 6
0 0 0 0 0 0 0 0 0 0 0 0 0 0 0 0 0 0 0 0 0 0 0 0 0 0 0 0 0 0 0 0 0 0 0 0 0 0 0 0 0 3 3 0
0 0 0 0 0 0 0 0 0 0 0 0 0 0 0 0 0 0 0 0 0 0 0 0 0 0 0 0 0 0 0 0 0 0 0 0 0 0 0 0 3 3 3 3
Height
5859 5863 5866 5868 5871 5873 5876 5878 5881 5883 5885 5888 5889 5890 5891 5892 5892 5893 5893 5893 5893 5893 5893 5892 5892 5892 5892 5892 5892 5892 5892 5891 5891 5890 5889 5889 5888 5888 5887 5886 5885 5884 5883 5881
5853 5856 5859 5862 5865 5868 5870 5873 5875 5877 5880 5882 5883 5884 5886 5887 5888 5888 5889 5889 5889 5889 5889 5889 5889 5889 5889 5889 5888 5888 5888 5888 5887 5886 5886 5885 5885 5884 5883 5882 5881 5880 5879 5877
5846 5850 5852 5855 5860 5862 5865 5867 5869 5871 5875 5876 5877 5879 5880 5881 5882 5883 5884 5884 5884 5885 5884 5884 5884 5884 5884 5884 5884 5884 5884 5883 5883 5882 5882 5881 5881 5880 5879 5878 5877 5875 5874 5872
5839 5843 5845 5852 5854 5857 5859 5861 5863 5866 5868 5870 5872 5874 5874 5876 5877 5878 5878 5879 5880 5880 5880 5880 5880 5880 5879 5879 5879 5879 5879 5878 5878 5878 5877 5876 5876 5875 5874 5873 5871 5870 5869 5867
5831 5834 5838 5844 5847 5850 5852 5855 5858 5860 5862 5864 5866 5867 5869 5870 5871 5872 5873 5874 5875 5875 5875 5875 5874 5874 5874 5874 5873 5873 5873 5873 5872 5872 5872 5871 5870 5869 5868 5867 5866 5864 5862 5861
5824 5826 5830 5838 5841 5843 5846 5848 5852 5854 5856 5858 5860 5861 5863 5864 5865 5866 5867 5868 5868 5869 5869 5869 5869 5868 5868 5868 5867 5867 5867 5867 5867 5866 5865 5865 5864 5863 5862 5860 5859 5858 5856 5854
5816 5818 5823 5830 5833 5836 5840 5843 5846 5847 5849 5851 5853 5855 5857 5858 5858 5859 5860 5861 5862 5862 5863 5863 5863 5862 5862 5861 5861 5861 5861 5860 5859 5859 5858 5857 5857 5856 5855 5853 5852 5850 5849 5847
5808 5812 5819 5823 5826 5829 5833 5836 5838 5840 5842 5845 5846 5848 5850 5851 5851 5853 5853 5854 5855 5856 5856 5856 5856 5855 5855 5855 5855 5854 5854 5853 5852 5852 5851 5850 5849 5848 5847 5846 5844 5843 5841 5839
5802 5807 5811 5814 5818 5821 5824 5828 5830 5832 5835 5837 5839 5841 5842 5843 5845 5846 5847 5847 5848 5848 5849 5849 5849 5848 5848 5848 5847 5847 5846 5846 5845 5844 5844 5843 5841 5840 5839 5838 5836 5834 5833 5831
5794 5798 5802 5806 5809 5813 5816 5819 5822 5824 5827 5829 5831 5833 5835 5836 5837 5838 5839 5840 5840 5841 5841 5841 5841 5841 5841 5840 5839 5839 5839 5838 5837 5837 5836 5834 5833 5832 5830 5829 5827 5825 5823 5822
5785 5790 5794 5798 5801 5805 5807 5810 5812 5815 5818 5820 5822 5824 5826 5828 5829 5830 5831 5832 5832 5833 5833 5833 5833 5832 5832 5832 5831 5831 5831 5830 5829 5828 5827 5826 5824 5823 5821 5820 5818 5816 5815 5812
5777 5782 5786 5790 5793 5795 5798 5801 5803 5806 5809 5811 5813 5815 5817 5818 5820 5821 5822 5823 5823 5823 5824 5824 5823 5823 5823 5823 5822 5822 5822 5821 5820 5819 5818 5816 5815 5813 5811 5810 5808 5806 5804 5802
5769 5773 5777 5780 5783 5786 5789 5791 5794 5796 5799 5801 5803 5805 5807 5808 5810 5811 5811 5812 5813 5813 5813 5813 5814 5814 5814 5813 5812 5813 5812 5812 5811 5810 5808 5807 5805 5804 5802 5800 5798 5796 5794 5792
5760 5764 5768 5771 5774 5777 5779 5782 5784 5786 5789 5791 5793 5795 5796 5798 5799 5800 5801 5801 5802 5802 5803 5803 5804 5804 5804 5803 5803 5803 5802 5801 5801 5800 5798 5797 5795 5793 5791 5789 5788 5785 5783 5781
5753 5756 5760 5762 5765 5767 5770 5772 5774 5776 5779 5781 5783 5784 5786 5787 5787 5788 5789 5790 5790 5792 5792 5793 5793 5793 5793 5792 5792 5792 5791 5791 5790 5789 5788 5786 5785 5783 5781 5778 5776 5774 5772 5769
5745 5748 5751 5753 5756 5758 5760 5762 5764 5767 5769 5771 5773 5774 5775 5776 5777 5778 5779 5780 5781 5782 5782 5782 5782 5782 5782 5781 5781 5781 5780 5780 5779 5778 5777 5776 5774 5772 5770 5768 5765 5763 5760 5758
5737 5740 5743 5745 5747 5749 5751 5753 5755 5757 5759 5761 5762 5763 5764 5765 5767 5769 5770 5771 5771 5772 5771 5771 5771 5771 5771 5770 5770 5769 5769 5769 5768 5767 5766 5764 5762 5760 5758 5756 5754 5751 5748 5746
5729 5732 5735 5737 5738 5740 5742 5743 5745 5747 5749 5750 5752 5752 5754 5755 5757 5759 5760 5761 5761 5761 5761 5761 5761 5761 5760 5759 5759 5758 5758 5758 5757 5756 5755 5753 5751 5749 5747 5744 5742 5739 5736 5733
5721 5724 5726 5728 5730 5731 5732 5734 5736 5737 5739 5740 5742 5744 5745 5746 5747 5749 5749 5750 5750 5750 5751 5750 5750 5750 5749 5748 5748 5747 5747 5746 5746 5744 5743 5742 5740 5737 5735 5733 5730 5727 5724 5721
5713 5716 5718 5719 5721 5723 5724 5726 5727 5728 5729 5730 5732 5733 5735 5736 5737 5739 5739 5740 5740 5740 5740 5740 5740 5739 5739 5738 5737 5737 5736 5735 5734 5733 5732 5730 5728 5726 5723 5721 5718 5715 5712 5708
5705 5707 5710 5711 5713 5715 5716 5718 5719 5720 5721 5722 5723 5724 5726 5727 5728 5729 5730 5730 5730 5730 5729 5730 5729 5729 5728 5727 5726 5726 5725 5724 5723 5722 5721 5719 5716 5714 5712 5709 5706 5703 5700 5696
5697 5699 5701 5703 5705 5707 5708 5710 5711 5712 5713 5714 5715 5716 5717 5718 5719 5720 5720 5721 5721 5721 5721 5721 5720 5719 5718 5718 5717 5717 5716 5715 5714 5712 5710 5708 5705 5703 5700 5698 5695 5692 5689 5685
5689 5691 5693 5695 5697 5699 5700 5702 5703 5704 5705 5706 5706 5707 5709 5709 5710 5711 5711 5712 5712 5713 5713 5712 5712 5711 5710 5709 5709 5708 5707 5705 5704 5702 5700 5698 5695 5693 5690 5687 5684 5681 5678 5675
5682 5684 5685 5687 5689 5691 5693 5694 5695 5696 5697 5697 5698 5699 5700 5701 5702 5703 5703 5703 5704 5704 5704 5704 5703 5703 5702 5701 5700 5699 5697 5696 5694 5692 5690 5688 5685 5682 5680 5677 5674 5671 5668 5665
5675 5677 5678 5680 5682 5684 5685 5687 5688 5688 5689 5690 5691 5692 5692 5693 5695 5695 5695 5696 5696 5696 5696 5696 5695 5694 5694 5693 5691 5690 5689 5687 5685 5683 5681 5679 5676 5673 5670 5667 5664 5661 5658 5655
5669 5670 5672 5674 5676 5677 5678 5679 5680 5681 5682 5683 5684 5685 5686 5686 5687 5687 5688 5688 5688 5688 5688 5688 5687 5686 5685 5685 5683 5682 5680 5678 5676 5674 5672 5670 5667 5664 5661 5658 5655 5652 5648 5645
5664 5665 5667 5668 5669 5670 5671 5672 5673 5674 5675 5676 5677 5678 5678 5679 5680 5680 5680 5680 5680 5680 5680 5680 5679 5679 5677 5676 5675 5673 5672 5670 5668 5666 5663 5661 5659 5656 5653 5650 5647 5643 5639 5636
Wind_Speed
30 30 29 28 28 27 27 27 26 24 23 20 19 18 16 16 16 16 16 15 15 15 15 14 15 15 14 14 13 13 13 12 12 12 13 13 13 13 14 14 15 16 16 16
32 32 31 30 29 29 29 29 28 27 25 22 22 21 20 19 19 18 17 17 17 16 16 16 16 16 15 16 15 15 14 14 13 14 14 14 15 15 16 16 17 17 18 18
33 32 32 33 31 30 30 30 29 28 26 25 24 22 21 21 21 19 18 18 17 18 17 16 16 16 17 17 17 17 17 17 16 16 16 16 17 17 18 19 19 19 20 20
34 34 36 32 31 30 30 30 29 28 26 24 24 23 22 22 22 21 20 20 19 19 18 17 17 17 18 18 19 20 19 19 19 18 18 19 19 19 20 21 22 22 22 22
36 36 36 34 32 31 31 30 29 28 26 24 23 23 22 22 22 23 22 21 22 21 20 19 19 20 20 20 20 21 21 21 21 21 22 22 22 22 23 23 24 24 24 24
37 37 36 33 31 31 32 32 29 29 27 25 25 24 23 22 24 24 23 22 22 22 22 22 22 22 22 21 21 22 23 23 23 24 24 24 24 25 25 26 25 26 26 26
36 36 35 33 32 31 32 30 29 29 28 27 26 25 24 24 24 24 24 23 23 23 24 24 24 24 23 23 23 23 24 25 25 25 26 26 26 26 26 27 27 28 28 27
36 36 35 32 33 33 31 29 29 29 29 28 27 26 25 25 25 25 25 24 24 25 25 25 25 25 24 24 24 25 26 26 26 26 27 27 27 27 27 28 29 29 29 29
37 37 35 34 34 33 33 32 30 29 29 29 28 27 26 26 26 26 26 25 25 24 25 26 26 26 27 27 27 27 27 27 27 28 28 28 29 29 29 30 31 31 31 30
37 36 36 35 35 35 34 33 32 31 30 30 29 29 28 27 27 28 27 26 26 26 27 27 27 28 28 28 28 28 28 28 29 29 30 30 31 32 32 32 32 33 32 32
36 36 36 36 35 35 35 35 34 34 33 32 31 31 30 29 29 29 28 28 28 29 30 30 30 30 29 29 29 29 29 30 30 31 31 32 33 34 34 34 34 34 34 34
36 36 36 36 35 35 36 36 36 36 35 34 34 33 32 31 31 31 31 31 31 31 32 32 32 32 32 32 32 31 30 31 31 32 33 33 34 34 34 34 34 34 35 36
36 36 36 36 35 35 36 36 36 37 37 36 35 35 34 34 34 34 34 34 33 33 34 33 33 33 34 34 34 33 33 33 33 33 33 34 34 34 34 35 35 36 37 38
35 35 35 34 35 35 36 36 36 37 37 37 37 36 36 36 37 36 36 37 36 36 35 35 34 35 35 35 36 35 35 35 34 34 34 34 35 35 35 35 36 37 38 39
35 35 34 35 36 36 36 36 36 36 36 36 37 37 37 37 36 35 35 35 35 35 34 34 34 36 37 37 36 36 36 35 35 35 36 36 36 36 37 37 37 38 39 40
35 35 35 35 35 36 36 36 37 37 36 36 36 36 36 36 36 36 36 35 35 35 36 36 36 36 36 37 37 36 36 35 35 35 36 36 37 38 38 38 38 39 40 41
34 33 33 34 35 35 35 34 35 36 36 35 35 35 35 35 36 37 35 35 36 36 36 37 37 36 36 36 36 37 37 37 36 37 37 37 38 38 38 39 40 41 41 41
32 32 32 32 32 33 33 34 34 34 35 36 35 35 34 34 34 34 35 35 35 35 36 36 36 36 36 36 36 37 37 38 38 37 37 38 38 38 38 39 40 41 41 41
32 32 32 32 32 32 32 32 32 33 33 34 35 34 33 32 33 34 34 34 34 34 34 33 34 35 35 35 35 35 36 37 37 37 38 38 38 39 40 40 41 41 41 42
31 31 31 31 31 31 31 31 31 31 31 31 33 33 33 33 32 33 34 33 32 32 33 33 33 34 34 34 34 35 35 36 36 37 37 38 38 39 39 40 40 40 41 41
31 30 30 30 30 30 30 30 30 30 29 29 30 29 30 30 30 31 31 30 30 31 32 32 32 34 35 34 33 33 33 34 35 36 37 37 38 38 38 38 38 38 39 39
28 29 28 29 29 29 29 29 29 28 28 28 27 27 28 29 29 29 30 30 29 29 30 31 31 31 31 31 31 31 32 33 34 34 35 36 36 37 37 37 37 38 38 39
26 26 27 27 27 27 27 27 27 27 27 27 27 27 28 28 27 27 27 28 28 28 29 29 30 30 29 30 30 30 31 32 33 33 34 35 35 35 36 36 36 36 37 37
23 24 25 26 26 26 26 26 26 25 25 25 25 26 26 26 26 26 26 27 28 28 29 29 29 30 30 30 30 31 31 31 32 33 33 33 33 34 34 35 35 35 36 37
21 22 23 24 24 24 24 24 24 24 24 24 24 24 24 25 25 26 26 27 27 27 27 28 28 29 29 29 29 30 30 30 31 32 32 33 33 34 33 33 34 34 35 36
19 19 20 21 21 22 23 24 24 24 24 24 24 24 25 25 25 26 26 26 26 26 26 26 27 28 28 28 29 30 30 31 31 32 32 32 32 32 32 32 32 33 34 34
17 18 19 19 20 21 21 22 22 22 22 23 24 24 24 24 24 24 24 24 25 25 25 25 25 26 26 27 28 29 30 30 31 31 31 31 31 31 31 31 32 32 33 32
Wind_Direction
228 230 231 235 238 241 245 249 252 254 257 257 258 259 261 262 264 266 270 271 270 273 274 274 271 271 272 277 278 279 282 285 284 281 281 284 287 290 291 293 292 292 292 293
229 232 235 235 237 242 246 249 253 255 256 258 260 261 262 263 263 264 266 268 266 269 272 272 271 269 270 271 273 276 281 286 285 284 283 284 286 289 290 291 292 293 292 291
231 233 237 238 238 241 246 250 253 255 258 260 261 261 262 262 263 263 264 265 262 264 268 269 270 269 269 271 272 274 278 281 284 285 284 286 287 288 289 290 291 292 290 289
233 235 238 240 240 242 246 249 252 255 257 259 260 259 261 261 260 261 262 262 263 264 265 268 271 272 273 275 276 277 277 279 280 281 283 284 286 287 289 290 290 291 290 289
237 239 241 240 241 242 245 247 249 252 255 258 259 260 258 260 260 259 258 260 263 265 265 267 270 272 273 276 276 276 276 278 279 281 282 283 284 286 288 290 290 290 290 288
238 240 242 241 241 242 246 247 248 251 254 255 256 259 259 258 258 257 255 258 261 263 267 268 269 272 274 277 277 276 277 278 279 281 282 283 283 285 287 289 290 289 288 288
240 242 242 241 240 243 247 249 249 251 252 254 256 257 257 257 257 255 254 257 260 262 265 268 270 271 272 275 276 277 278 279 279 280 281 283 284 286 287 289 291 291 290 288
242 243 242 242 243 245 247 248 250 251 252 254 256 256 256 256 255 253 254 258 260 262 264 267 270 271 273 275 277 278 279 279 279 279 280 282 284 286 287 288 289 290 291 290
241 242 242 242 243 245 246 247 249 251 251 252 255 254 255 255 254 253 255 257 259 262 264 267 270 273 275 277 277 278 279 280 280 280 280 282 284 285 286 286 287 288 288 290
242 241 241 242 243 246 247 248 250 250 250 252 255 255 255 255 255 256 257 258 259 261 264 266 269 272 275 276 277 278 280 280 280 279 280 282 284 285 285 286 286 287 288 289
242 241 241 242 244 246 247 249 250 250 250 253 255 256 255 254 254 255 256 258 260 263 264 267 269 271 273 274 276 278 278 279 279 278 279 282 284 285 285 286 285 286 287 289
242 242 243 243 246 249 250 250 252 252 252 254 255 254 253 254 255 256 257 258 259 261 262 265 267 267 269 272 274 276 280 280 279 279 280 280 282 284 285 285 286 286 287 288
243 244 245 246 247 249 250 252 252 253 254 254 254 252 255 257 257 258 259 259 260 262 262 263 266 267 269 272 275 277 279 280 280 280 282 282 282 283 284 284 285 286 286 288
243 243 244 247 249 250 251 251 253 253 254 255 254 255 256 257 257 258 259 260 261 263 264 265 266 268 271 273 275 276 278 279 279 280 281 282 283 284 284 284 285 285 287 288
242 243 245 248 249 250 250 251 252 254 255 255 254 255 257 257 258 258 259 261 263 265 266 267 268 269 271 272 273 275 278 279 279 280 280 281 283 284 286 285 286 287 288 289
240 243 247 250 252 253 252 253 252 253 254 254 255 254 254 255 256 256 258 261 264 266 268 268 269 270 269 271 273 274 276 279 280 280 281 282 284 285 285 286 286 288 289 290
239 243 248 251 253 255 256 258 257 255 254 255 256 256 255 255 256 257 259 262 264 267 269 269 269 270 272 272 273 276 278 279 280 281 283 284 284 285 285 286 287 289 291 291
242 246 249 250 252 254 256 258 260 260 258 257 257 257 257 256 256 258 261 262 265 266 267 269 270 271 273 274 275 276 278 279 281 283 284 284 284 284 286 288 290 291 292 292
245 246 248 250 251 253 255 257 256 259 258 257 257 257 258 260 259 260 261 264 266 266 268 270 271 273 274 274 275 276 278 280 279 282 284 285 285 286 287 289 290 291 292 292
245 246 248 251 252 253 254 255 257 260 260 259 259 258 259 260 261 262 263 265 268 267 269 271 273 273 274 276 277 278 279 280 281 282 284 285 285 286 287 289 290 292 293 293
245 247 248 250 252 253 254 256 259 262 263 263 261 261 260 261 261 262 264 266 270 270 268 270 272 273 275 278 278 278 279 280 282 283 284 285 286 287 288 289 290 292 293 294
245 246 248 249 250 252 254 256 259 261 263 264 264 262 262 262 262 263 265 268 271 271 271 272 274 275 277 278 277 277 278 281 282 283 284 286 287 288 288 289 290 291 293 294
246 247 248 248 249 252 255 258 259 260 262 262 261 260 260 262 264 265 266 267 269 271 272 273 275 276 277 278 279 279 280 281 283 284 285 287 288 290 290 291 292 293 294 294
245 246 247 248 250 252 256 258 259 260 261 261 260 260 260 261 263 265 266 267 268 270 272 275 277 278 278 280 281 282 282 283 285 286 287 288 290 292 294 295 295 296 296 295
241 243 245 247 248 249 252 255 257 259 259 259 259 261 263 263 263 266 268 269 270 270 272 274 276 278 279 281 283 283 283 285 287 287 287 289 291 294 296 297 297 297 297 298
240 243 246 248 249 251 252 254 256 257 257 257 259 262 264 263 263 265 266 268 269 270 272 273 276 278 278 280 282 284 285 286 288 288 289 291 293 294 296 298 300 299 300 300
243 246 249 250 251 252 254 256 258 258 258 259 261 262 263 262 262 264 266 267 269 271 273 275 277 279 281 283 284 285 287 289 290 290 291 292 293 295 297 299 301 303 303 302